date,time,SUV Intensity [MED/Hr],UV Index,Daily total [MED],Since Last [MED]
25/12/2022,00:00:57,0.001,0.0,0.0,0.0
25/12/2022,00:01:57,0.000,0.0,0.0,0.0
25/12/2022,00:02:57,-0.001,0.0,0.0,0.0
25/12/2022,00:03:57,0.000,0.0,0.0,0.0
25/12/2022,00:04:57,0.000,0.0,0.0,0.0
25/12/2022,00:05:57,0.000,0.0,0.0,0.0
25/12/2022,00:06:57,-0.001,0.0,0.0,0.0
25/12/2022,00:07:57,-0.000,0.0,0.0,0.0
25/12/2022,00:08:57,0.000,0.0,0.0,0.0
25/12/2022,00:09:57,0.001,0.0,0.0,0.0
25/12/2022,00:10:57,0.001,0.0,0.0,0.0
25/12/2022,00:11:57,0.000,0.0,0.0,0.0
25/12/2022,00:12:56,0.001,0.0,0.0,0.0
25/12/2022,00:13:57,0.000,0.0,0.0,0.0
25/12/2022,00:14:56,-0.000,0.0,0.0,0.0
25/12/2022,00:15:57,0.001,0.0,0.0,0.0
25/12/2022,00:16:57,0.000,0.0,0.0,0.0
25/12/2022,00:17:57,-0.000,0.0,0.0,0.0
25/12/2022,00:18:57,0.000,0.0,0.0,0.0
25/12/2022,00:19:57,0.000,0.0,0.0,0.0
25/12/2022,00:20:57,0.000,0.0,0.0,0.0
25/12/2022,00:21:57,0.000,0.0,0.0,0.0
25/12/2022,00:22:57,0.000,0.0,0.0,0.0
25/12/2022,00:23:57,0.000,0.0,0.0,0.0
25/12/2022,00:24:57,0.000,0.0,0.0,0.0
25/12/2022,00:26:01,0.000,0.0,0.0,0.0
25/12/2022,00:26:57,0.001,0.0,0.0,0.0
25/12/2022,00:27:57,0.000,0.0,0.0,0.0
25/12/2022,00:28:57,0.000,0.0,0.0,0.0
25/12/2022,00:29:57,0.000,0.0,0.0,0.0
25/12/2022,00:30:57,0.000,0.0,0.0,0.0
25/12/2022,00:31:57,0.000,0.0,0.0,0.0
25/12/2022,00:32:57,0.000,0.0,0.0,0.0
25/12/2022,00:33:57,-0.000,0.0,0.0,0.0
25/12/2022,00:34:57,0.001,0.0,0.0,0.0
25/12/2022,00:35:57,0.001,0.0,0.0,0.0
25/12/2022,00:36:57,0.001,0.0,0.0,0.0
25/12/2022,00:37:57,0.001,0.0,0.0,0.0
25/12/2022,00:38:57,-0.001,0.0,0.0,0.0
25/12/2022,00:39:57,0.000,0.0,0.0,0.0
25/12/2022,00:40:57,0.000,0.0,0.0,0.0
25/12/2022,00:41:56,0.000,0.0,0.0,0.0
25/12/2022,00:42:57,-0.001,0.0,0.0,0.0
25/12/2022,00:43:57,0.000,0.0,0.0,0.0
25/12/2022,00:44:57,0.001,0.0,0.0,0.0
25/12/2022,00:45:57,0.000,0.0,0.0,0.0
25/12/2022,00:46:57,0.000,0.0,0.0,0.0
25/12/2022,00:47:57,-0.000,0.0,0.0,0.0
25/12/2022,00:48:57,0.001,0.0,0.0,0.0
25/12/2022,00:49:57,0.000,0.0,0.0,0.0
25/12/2022,00:50:57,0.000,0.0,0.0,0.0
25/12/2022,00:51:57,-0.001,0.0,0.0,0.0
25/12/2022,00:52:57,-0.001,0.0,0.0,0.0
25/12/2022,00:53:57,-0.000,0.0,0.0,0.0
25/12/2022,00:54:57,-0.000,0.0,0.0,0.0
25/12/2022,00:55:57,-0.001,0.0,0.0,0.0
25/12/2022,00:56:57,0.000,0.0,0.0,0.0
25/12/2022,00:57:57,0.000,0.0,0.0,0.0
25/12/2022,00:58:57,0.000,0.0,0.0,0.0
25/12/2022,00:59:57,0.000,0.0,0.0,0.0
25/12/2022,01:00:57,0.001,0.0,0.0,0.0
25/12/2022,01:01:57,0.000,0.0,0.0,0.0
25/12/2022,01:02:57,0.000,0.0,0.0,0.0
25/12/2022,01:03:57,0.000,0.0,0.0,0.0
25/12/2022,01:04:56,0.001,0.0,0.0,0.0
25/12/2022,01:05:57,0.000,0.0,0.0,0.0
25/12/2022,01:06:57,-0.001,0.0,0.0,0.0
25/12/2022,01:07:57,0.000,0.0,0.0,0.0
25/12/2022,01:08:57,0.001,0.0,0.0,0.0
25/12/2022,01:09:57,0.000,0.0,0.0,0.0
25/12/2022,01:10:57,0.000,0.0,0.0,0.0
25/12/2022,01:11:57,0.000,0.0,0.0,0.0
25/12/2022,01:12:57,0.000,0.0,0.0,0.0
25/12/2022,01:13:57,0.000,0.0,0.0,0.0
25/12/2022,01:14:57,0.000,0.0,0.0,0.0
25/12/2022,01:15:57,0.000,0.0,0.0,0.0
25/12/2022,01:16:57,0.001,0.0,0.0,0.0
25/12/2022,01:17:57,0.000,0.0,0.0,0.0
25/12/2022,01:18:57,0.000,0.0,0.0,0.0
25/12/2022,01:19:57,0.001,0.0,0.0,0.0
25/12/2022,01:20:57,0.000,0.0,0.0,0.0
25/12/2022,01:21:57,-0.000,0.0,0.0,0.0
25/12/2022,01:22:57,0.000,0.0,0.0,0.0
25/12/2022,01:23:57,0.000,0.0,0.0,0.0
25/12/2022,01:24:57,0.000,0.0,0.0,0.0
25/12/2022,01:25:57,-0.000,0.0,0.0,0.0
25/12/2022,01:26:57,-0.000,0.0,0.0,0.0
25/12/2022,01:27:57,-0.001,0.0,0.0,0.0
25/12/2022,01:28:57,-0.000,0.0,0.0,0.0
25/12/2022,01:29:57,0.000,0.0,0.0,0.0
25/12/2022,01:30:57,0.001,0.0,0.0,0.0
25/12/2022,01:31:57,0.000,0.0,0.0,0.0
25/12/2022,01:32:57,0.001,0.0,0.0,0.0
25/12/2022,01:33:57,0.000,0.0,0.0,0.0
25/12/2022,01:34:57,0.000,0.0,0.0,0.0
25/12/2022,01:35:57,-0.001,0.0,0.0,0.0
25/12/2022,01:36:57,-0.000,0.0,0.0,0.0
25/12/2022,01:37:57,-0.000,0.0,0.0,0.0
25/12/2022,01:38:57,0.000,0.0,0.0,0.0
25/12/2022,01:39:57,-0.000,0.0,0.0,0.0
25/12/2022,01:40:57,0.000,0.0,0.0,0.0
25/12/2022,01:41:57,0.000,0.0,0.0,0.0
25/12/2022,01:42:57,0.000,0.0,0.0,0.0
25/12/2022,01:43:57,0.000,0.0,0.0,0.0
25/12/2022,01:44:57,-0.000,0.0,0.0,0.0
25/12/2022,01:45:57,0.000,0.0,0.0,0.0
25/12/2022,01:46:57,0.000,0.0,0.0,0.0
25/12/2022,01:47:57,-0.000,0.0,0.0,0.0
25/12/2022,01:48:58,0.000,0.0,0.0,0.0
25/12/2022,01:49:57,0.000,0.0,0.0,0.0
25/12/2022,01:50:57,0.000,0.0,0.0,0.0
25/12/2022,01:51:57,0.000,0.0,0.0,0.0
25/12/2022,01:52:57,-0.000,0.0,0.0,0.0
25/12/2022,01:53:57,-0.001,0.0,0.0,0.0
25/12/2022,01:54:57,-0.000,0.0,0.0,0.0
25/12/2022,01:55:57,-0.000,0.0,0.0,0.0
25/12/2022,01:56:57,0.000,0.0,0.0,0.0
25/12/2022,01:57:57,0.000,0.0,0.0,0.0
25/12/2022,01:58:57,-0.001,0.0,0.0,0.0
25/12/2022,01:59:57,0.001,0.0,0.0,0.0
25/12/2022,02:00:57,-0.001,0.0,0.0,0.0
25/12/2022,02:01:57,0.001,0.0,0.0,0.0
25/12/2022,02:02:57,0.001,0.0,0.0,0.0
25/12/2022,02:03:57,0.001,0.0,0.0,0.0
25/12/2022,02:04:57,-0.001,0.0,0.0,0.0
25/12/2022,02:05:57,0.000,0.0,0.0,0.0
25/12/2022,02:06:57,0.000,0.0,0.0,0.0
25/12/2022,02:07:57,-0.001,0.0,0.0,0.0
25/12/2022,02:08:57,0.000,0.0,0.0,0.0
25/12/2022,02:09:57,-0.000,0.0,0.0,0.0
25/12/2022,02:10:57,0.000,0.0,0.0,0.0
25/12/2022,02:11:57,0.000,0.0,0.0,0.0
25/12/2022,02:12:57,-0.001,0.0,0.0,0.0
25/12/2022,02:13:57,-0.001,0.0,0.0,0.0
25/12/2022,02:14:57,-0.000,0.0,0.0,0.0
25/12/2022,02:15:57,-0.000,0.0,0.0,0.0
25/12/2022,02:16:57,-0.000,0.0,0.0,0.0
25/12/2022,02:17:57,0.000,0.0,0.0,0.0
25/12/2022,02:18:57,-0.000,0.0,0.0,0.0
25/12/2022,02:19:57,-0.001,0.0,0.0,0.0
25/12/2022,02:20:57,-0.000,0.0,0.0,0.0
25/12/2022,02:21:57,-0.000,0.0,0.0,0.0
25/12/2022,02:22:57,-0.001,0.0,0.0,0.0
25/12/2022,02:23:57,0.000,0.0,0.0,0.0
25/12/2022,02:24:57,-0.000,0.0,0.0,0.0
25/12/2022,02:25:57,0.000,0.0,0.0,0.0
25/12/2022,02:26:57,0.000,0.0,0.0,0.0
25/12/2022,02:27:57,-0.001,0.0,0.0,0.0
25/12/2022,02:28:57,-0.001,0.0,0.0,0.0
25/12/2022,02:29:58,-0.000,0.0,0.0,0.0
25/12/2022,02:30:57,0.000,0.0,0.0,0.0
25/12/2022,02:31:57,0.000,0.0,0.0,0.0
25/12/2022,02:32:57,-0.000,0.0,0.0,0.0
25/12/2022,02:33:57,0.000,0.0,0.0,0.0
25/12/2022,02:34:58,-0.001,0.0,0.0,0.0
25/12/2022,02:35:57,-0.001,0.0,0.0,0.0
25/12/2022,02:36:57,0.000,0.0,0.0,0.0
25/12/2022,02:37:57,-0.000,0.0,0.0,0.0
25/12/2022,02:38:57,0.000,0.0,0.0,0.0
25/12/2022,02:39:57,0.001,0.0,0.0,0.0
25/12/2022,02:40:57,0.000,0.0,0.0,0.0
25/12/2022,02:41:57,-0.000,0.0,0.0,0.0
25/12/2022,02:42:57,-0.001,0.0,0.0,0.0
25/12/2022,02:43:57,0.000,0.0,0.0,0.0
25/12/2022,02:44:57,-0.000,0.0,0.0,0.0
25/12/2022,02:45:57,0.000,0.0,0.0,0.0
25/12/2022,02:46:57,-0.000,0.0,0.0,0.0
25/12/2022,02:47:58,-0.001,0.0,0.0,0.0
25/12/2022,02:48:58,0.001,0.0,0.0,0.0
25/12/2022,02:49:57,0.000,0.0,0.0,0.0
25/12/2022,02:50:57,0.000,0.0,0.0,0.0
25/12/2022,02:51:57,0.000,0.0,0.0,0.0
25/12/2022,02:52:57,0.000,0.0,0.0,0.0
25/12/2022,02:53:58,0.000,0.0,0.0,0.0
25/12/2022,02:54:57,0.000,0.0,0.0,0.0
25/12/2022,02:55:57,-0.000,0.0,0.0,0.0
25/12/2022,02:56:57,-0.001,0.0,0.0,0.0
25/12/2022,02:57:57,-0.001,0.0,0.0,0.0
25/12/2022,02:58:57,0.000,0.0,0.0,0.0
25/12/2022,02:59:57,0.000,0.0,0.0,0.0
25/12/2022,03:00:57,-0.001,0.0,0.0,0.0
25/12/2022,03:01:57,0.000,0.0,0.0,0.0
25/12/2022,03:02:57,-0.001,0.0,0.0,0.0
25/12/2022,03:03:57,0.000,0.0,0.0,0.0
25/12/2022,03:04:57,0.000,0.0,0.0,0.0
25/12/2022,03:05:57,0.001,0.0,0.0,0.0
25/12/2022,03:06:58,0.000,0.0,0.0,0.0
25/12/2022,03:07:57,0.000,0.0,0.0,0.0
25/12/2022,03:08:57,0.001,0.0,0.0,0.0
25/12/2022,03:09:57,0.000,0.0,0.0,0.0
25/12/2022,03:10:57,0.000,0.0,0.0,0.0
25/12/2022,03:11:57,0.000,0.0,0.0,0.0
25/12/2022,03:12:57,0.000,0.0,0.0,0.0
25/12/2022,03:13:57,0.000,0.0,0.0,0.0
25/12/2022,03:14:57,0.000,0.0,0.0,0.0
25/12/2022,03:15:57,-0.001,0.0,0.0,0.0
25/12/2022,03:16:57,0.001,0.0,0.0,0.0
25/12/2022,03:17:57,0.000,0.0,0.0,0.0
25/12/2022,03:18:57,0.000,0.0,0.0,0.0
25/12/2022,03:19:57,0.000,0.0,0.0,0.0
25/12/2022,03:20:57,0.000,0.0,0.0,0.0
25/12/2022,03:21:57,0.000,0.0,0.0,0.0
25/12/2022,03:22:57,0.002,0.0,0.0,0.0
25/12/2022,03:23:57,0.000,0.0,0.0,0.0
25/12/2022,03:24:58,0.000,0.0,0.0,0.0
25/12/2022,03:25:57,0.000,0.0,0.0,0.0
25/12/2022,03:26:57,0.000,0.0,0.0,0.0
25/12/2022,03:27:57,0.001,0.0,0.0,0.0
25/12/2022,03:28:57,0.001,0.0,0.0,0.0
25/12/2022,03:29:57,0.000,0.0,0.0,0.0
25/12/2022,03:30:57,0.000,0.0,0.0,0.0
25/12/2022,03:31:57,0.000,0.0,0.0,0.0
25/12/2022,03:32:57,0.000,0.0,0.0,0.0
25/12/2022,03:33:57,0.000,0.0,0.0,0.0
25/12/2022,03:34:57,0.000,0.0,0.0,0.0
25/12/2022,03:35:57,0.000,0.0,0.0,0.0
25/12/2022,03:36:57,0.000,0.0,0.0,0.0
25/12/2022,03:37:58,0.001,0.0,0.0,0.0
25/12/2022,03:38:57,0.000,0.0,0.0,0.0
25/12/2022,03:39:57,0.000,0.0,0.0,0.0
25/12/2022,03:40:57,-0.001,0.0,0.0,0.0
25/12/2022,03:41:57,0.000,0.0,0.0,0.0
25/12/2022,03:42:58,0.000,0.0,0.0,0.0
25/12/2022,03:43:57,-0.000,0.0,0.0,0.0
25/12/2022,03:44:57,-0.001,0.0,0.0,0.0
25/12/2022,03:45:57,0.000,0.0,0.0,0.0
25/12/2022,03:46:57,0.000,0.0,0.0,0.0
25/12/2022,03:47:58,-0.001,0.0,0.0,0.0
25/12/2022,03:48:57,0.000,0.0,0.0,0.0
25/12/2022,03:49:58,0.000,0.0,0.0,0.0
25/12/2022,03:50:57,0.000,0.0,0.0,0.0
25/12/2022,03:51:57,0.000,0.0,0.0,0.0
25/12/2022,03:52:57,0.000,0.0,0.0,0.0
25/12/2022,03:53:58,0.001,0.0,0.0,0.0
25/12/2022,03:54:57,0.000,0.0,0.0,0.0
25/12/2022,03:55:57,0.000,0.0,0.0,0.0
25/12/2022,03:56:57,0.001,0.0,0.0,0.0
25/12/2022,03:57:57,0.000,0.0,0.0,0.0
25/12/2022,03:58:57,0.000,0.0,0.0,0.0
25/12/2022,03:59:57,-0.000,0.0,0.0,0.0
25/12/2022,04:00:57,0.000,0.0,0.0,0.0
25/12/2022,04:01:57,0.000,0.0,0.0,0.0
25/12/2022,04:02:57,0.000,0.0,0.0,0.0
25/12/2022,04:03:58,0.000,0.0,0.0,0.0
25/12/2022,04:04:57,0.000,0.0,0.0,0.0
25/12/2022,04:05:57,0.000,0.0,0.0,0.0
25/12/2022,04:06:57,-0.001,0.0,0.0,0.0
25/12/2022,04:07:57,0.001,0.0,0.0,0.0
25/12/2022,04:08:59,-0.001,0.0,0.0,0.0
25/12/2022,04:09:57,0.000,0.0,0.0,0.0
25/12/2022,04:10:57,0.000,0.0,0.0,0.0
25/12/2022,04:11:57,0.001,0.0,0.0,0.0
25/12/2022,04:12:57,0.000,0.0,0.0,0.0
25/12/2022,04:13:57,-0.000,0.0,0.0,0.0
25/12/2022,04:14:57,-0.000,0.0,0.0,0.0
25/12/2022,04:15:57,0.000,0.0,0.0,0.0
25/12/2022,04:16:57,0.000,0.0,0.0,0.0
25/12/2022,04:17:58,-0.000,0.0,0.0,0.0
25/12/2022,04:18:58,0.001,0.0,0.0,0.0
25/12/2022,04:19:57,0.001,0.0,0.0,0.0
25/12/2022,04:20:57,0.000,0.0,0.0,0.0
25/12/2022,04:21:57,-0.000,0.0,0.0,0.0
25/12/2022,04:22:58,0.000,0.0,0.0,0.0
25/12/2022,04:23:57,0.000,0.0,0.0,0.0
25/12/2022,04:24:57,0.000,0.0,0.0,0.0
25/12/2022,04:25:57,0.000,0.0,0.0,0.0
25/12/2022,04:26:57,0.000,0.0,0.0,0.0
25/12/2022,04:27:58,0.000,0.0,0.0,0.0
25/12/2022,04:28:57,0.000,0.0,0.0,0.0
25/12/2022,04:29:57,0.000,0.0,0.0,0.0
25/12/2022,04:30:57,0.000,0.0,0.0,0.0
25/12/2022,04:31:57,-0.000,0.0,0.0,0.0
25/12/2022,04:32:57,0.000,0.0,0.0,0.0
25/12/2022,04:33:57,0.000,0.0,0.0,0.0
25/12/2022,04:34:58,0.000,0.0,0.0,0.0
25/12/2022,04:35:57,0.000,0.0,0.0,0.0
25/12/2022,04:36:57,0.000,0.0,0.0,0.0
25/12/2022,04:37:57,0.000,0.0,0.0,0.0
25/12/2022,04:38:57,0.001,0.0,0.0,0.0
25/12/2022,04:39:58,0.000,0.0,0.0,0.0
25/12/2022,04:40:57,0.000,0.0,0.0,0.0
25/12/2022,04:41:57,0.001,0.0,0.0,0.0
25/12/2022,04:42:57,-0.001,0.0,0.0,0.0
25/12/2022,04:43:57,0.000,0.0,0.0,0.0
25/12/2022,04:44:57,0.000,0.0,0.0,0.0
25/12/2022,04:45:57,0.001,0.0,0.0,0.0
25/12/2022,04:46:57,0.000,0.0,0.0,0.0
25/12/2022,04:47:57,-0.000,0.0,0.0,0.0
25/12/2022,04:48:58,0.001,0.0,0.0,0.0
25/12/2022,04:49:57,-0.000,0.0,0.0,0.0
25/12/2022,04:50:57,0.000,0.0,0.0,0.0
25/12/2022,04:51:57,0.000,0.0,0.0,0.0
25/12/2022,04:52:58,-0.001,0.0,0.0,0.0
25/12/2022,04:53:57,0.001,0.0,0.0,0.0
25/12/2022,04:54:57,0.000,0.0,0.0,0.0
25/12/2022,04:55:57,-0.000,0.0,0.0,0.0
25/12/2022,04:56:57,-0.001,0.0,0.0,0.0
25/12/2022,04:57:57,0.000,0.0,0.0,0.0
25/12/2022,04:58:57,0.000,0.0,0.0,0.0
25/12/2022,04:59:57,0.001,0.0,0.0,0.0
25/12/2022,05:00:57,0.000,0.0,0.0,0.0
25/12/2022,05:01:59,-0.001,0.0,0.0,0.0
25/12/2022,05:02:57,-0.001,0.0,0.0,0.0
25/12/2022,05:03:57,-0.001,0.0,0.0,0.0
25/12/2022,05:04:58,0.000,0.0,0.0,0.0
25/12/2022,05:05:57,0.000,0.0,0.0,0.0
25/12/2022,05:06:57,-0.001,0.0,0.0,0.0
25/12/2022,05:07:58,-0.001,0.0,0.0,0.0
25/12/2022,05:08:57,0.000,0.0,0.0,0.0
25/12/2022,05:09:58,0.000,0.0,0.0,0.0
25/12/2022,05:10:57,0.000,0.0,0.0,0.0
25/12/2022,05:11:57,-0.000,0.0,0.0,0.0
25/12/2022,05:12:57,-0.000,0.0,0.0,0.0
25/12/2022,05:13:57,-0.001,0.0,0.0,0.0
25/12/2022,05:14:57,0.001,0.0,0.0,0.0
25/12/2022,05:15:57,-0.001,0.0,0.0,0.0
25/12/2022,05:16:57,-0.001,0.0,0.0,0.0
25/12/2022,05:17:57,0.000,0.0,0.0,0.0
25/12/2022,05:18:57,0.001,0.0,0.0,0.0
25/12/2022,05:19:57,0.000,0.0,0.0,0.0
25/12/2022,05:20:57,0.000,0.0,0.0,0.0
25/12/2022,05:21:58,0.000,0.0,0.0,0.0
25/12/2022,05:22:57,0.001,0.0,0.0,0.0
25/12/2022,05:23:57,0.001,0.0,0.0,0.0
25/12/2022,05:24:58,0.000,0.0,0.0,0.0
25/12/2022,05:25:57,0.001,0.0,0.0,0.0
25/12/2022,05:26:57,-0.001,0.0,0.0,0.0
25/12/2022,05:27:57,-0.000,0.0,0.0,0.0
25/12/2022,05:28:58,-0.000,0.0,0.0,0.0
25/12/2022,05:29:57,0.000,0.0,0.0,0.0
25/12/2022,05:30:57,-0.000,0.0,0.0,0.0
25/12/2022,05:31:57,0.001,0.0,0.0,0.0
25/12/2022,05:32:57,-0.000,0.0,0.0,0.0
25/12/2022,05:33:58,0.000,0.0,0.0,0.0
25/12/2022,05:34:57,0.001,0.0,0.0,0.0
25/12/2022,05:35:57,-0.001,0.0,0.0,0.0
25/12/2022,05:36:58,-0.000,0.0,0.0,0.0
25/12/2022,05:37:57,0.000,0.0,0.0,0.0
25/12/2022,05:38:57,0.000,0.0,0.0,0.0
25/12/2022,05:39:57,0.001,0.0,0.0,0.0
25/12/2022,05:40:58,0.000,0.0,0.0,0.0
25/12/2022,05:41:57,-0.000,0.0,0.0,0.0
25/12/2022,05:42:57,-0.000,0.0,0.0,0.0
25/12/2022,05:43:57,0.000,0.0,0.0,0.0
25/12/2022,05:44:57,0.000,0.0,0.0,0.0
25/12/2022,05:45:58,-0.001,0.0,0.0,0.0
25/12/2022,05:46:57,0.000,0.0,0.0,0.0
25/12/2022,05:47:57,0.000,0.0,0.0,0.0
25/12/2022,05:48:57,0.000,0.0,0.0,0.0
25/12/2022,05:49:57,-0.001,0.0,0.0,0.0
25/12/2022,05:50:57,0.001,0.0,0.0,0.0
25/12/2022,05:51:57,0.000,0.0,0.0,0.0
25/12/2022,05:52:58,-0.001,0.0,0.0,0.0
25/12/2022,05:53:57,-0.001,0.0,0.0,0.0
25/12/2022,05:54:57,0.001,0.0,0.0,0.0
25/12/2022,05:55:58,0.001,0.0,0.0,0.0
25/12/2022,05:56:57,0.001,0.0,0.0,0.0
25/12/2022,05:57:58,0.000,0.0,0.0,0.0
25/12/2022,05:58:57,-0.001,0.0,0.0,0.0
25/12/2022,05:59:58,-0.000,0.0,0.0,0.0
25/12/2022,06:00:57,0.001,0.0,0.0,0.0
25/12/2022,06:01:58,-0.000,0.0,0.0,0.0
25/12/2022,06:02:57,-0.000,0.0,0.0,0.0
25/12/2022,06:03:57,-0.000,0.0,0.0,0.0
25/12/2022,06:04:58,-0.000,0.0,0.0,0.0
25/12/2022,06:05:57,0.000,0.0,0.0,0.0
25/12/2022,06:06:57,0.001,0.0,0.0,0.0
25/12/2022,06:07:58,-0.000,0.0,0.0,0.0
25/12/2022,06:08:57,-0.001,0.0,0.0,0.0
25/12/2022,06:09:57,0.001,0.0,0.0,0.0
25/12/2022,06:10:57,0.000,0.0,0.0,0.0
25/12/2022,06:11:58,0.000,0.0,0.0,0.0
25/12/2022,06:12:57,0.000,0.0,0.0,0.0
25/12/2022,06:13:57,0.000,0.0,0.0,0.0
25/12/2022,06:14:58,-0.000,0.0,0.0,0.0
25/12/2022,06:15:57,-0.000,0.0,0.0,0.0
25/12/2022,06:16:57,0.001,0.0,0.0,0.0
25/12/2022,06:17:58,0.001,0.0,0.0,0.0
25/12/2022,06:18:57,0.000,0.0,0.0,0.0
25/12/2022,06:19:58,0.000,0.0,0.0,0.0
25/12/2022,06:20:57,0.000,0.0,0.0,0.0
25/12/2022,06:21:58,-0.000,0.0,0.0,0.0
25/12/2022,06:22:57,-0.001,0.0,0.0,0.0
25/12/2022,06:23:58,-0.001,0.0,0.0,0.0
25/12/2022,06:24:57,0.000,0.0,0.0,0.0
25/12/2022,06:25:58,0.000,0.0,0.0,0.0
25/12/2022,06:26:57,0.000,0.0,0.0,0.0
25/12/2022,06:27:58,0.001,0.0,0.0,0.0
25/12/2022,06:28:57,0.001,0.0,0.0,0.0
25/12/2022,06:29:57,-0.000,0.0,0.0,0.0
25/12/2022,06:30:58,0.000,0.0,0.0,0.0
25/12/2022,06:31:57,0.000,0.0,0.0,0.0
25/12/2022,06:32:57,0.000,0.0,0.0,0.0
25/12/2022,06:33:58,-0.000,0.0,0.0,0.0
25/12/2022,06:34:57,0.000,0.0,0.0,0.0
25/12/2022,06:35:57,0.001,0.0,0.0,0.0
25/12/2022,06:36:58,-0.000,0.0,0.0,0.0
25/12/2022,06:37:57,0.000,0.0,0.0,0.0
25/12/2022,06:38:57,-0.000,0.0,0.0,0.0
25/12/2022,06:39:58,-0.001,0.0,0.0,0.0
25/12/2022,06:40:58,0.001,0.0,0.0,0.0
25/12/2022,06:41:57,-0.001,0.0,0.0,0.0
25/12/2022,06:42:57,0.000,0.0,0.0,0.0
25/12/2022,06:43:58,0.000,0.0,0.0,0.0
25/12/2022,06:44:57,0.001,0.0,0.0,0.0
25/12/2022,06:45:57,0.001,0.0,0.0,0.0
25/12/2022,06:46:57,-0.000,0.0,0.0,0.0
25/12/2022,06:47:58,-0.000,0.0,0.0,0.0
25/12/2022,06:48:57,-0.000,0.0,0.0,0.0
25/12/2022,06:49:58,-0.000,0.0,0.0,0.0
25/12/2022,06:50:57,-0.000,0.0,0.0,0.0
25/12/2022,06:51:58,0.000,0.0,0.0,0.0
25/12/2022,06:52:57,-0.000,0.0,0.0,0.0
25/12/2022,06:53:57,-0.001,0.0,0.0,0.0
25/12/2022,06:54:58,-0.000,0.0,0.0,0.0
25/12/2022,06:55:58,0.001,0.0,0.0,0.0
25/12/2022,06:56:57,-0.001,0.0,0.0,0.0
25/12/2022,06:57:57,0.001,0.0,0.0,0.0
25/12/2022,06:58:58,-0.000,0.0,0.0,0.0
25/12/2022,06:59:57,0.000,0.0,0.0,0.0
25/12/2022,07:00:57,0.001,0.0,0.0,0.0
25/12/2022,07:01:58,-0.001,0.0,0.0,0.0
25/12/2022,07:02:57,0.000,0.0,0.0,0.0
25/12/2022,07:03:58,0.000,0.0,0.0,0.0
25/12/2022,07:04:57,0.000,0.0,0.0,0.0
25/12/2022,07:05:57,-0.001,0.0,0.0,0.0
25/12/2022,07:06:57,-0.000,0.0,0.0,0.0
25/12/2022,07:07:58,-0.000,0.0,0.0,0.0
25/12/2022,07:08:57,-0.000,0.0,0.0,0.0
25/12/2022,07:09:58,0.001,0.0,0.0,0.0
25/12/2022,07:10:58,-0.001,0.0,0.0,0.0
25/12/2022,07:11:57,-0.001,0.0,0.0,0.0
25/12/2022,07:12:57,0.000,0.0,0.0,0.0
25/12/2022,07:13:55,-0.000,0.0,0.0,0.0
25/12/2022,07:14:58,0.001,0.0,0.0,0.0
25/12/2022,07:15:57,0.001,0.0,0.0,0.0
25/12/2022,07:16:57,-0.000,0.0,0.0,0.0
25/12/2022,07:17:58,0.000,0.0,0.0,0.0
25/12/2022,07:18:57,0.000,0.0,0.0,0.0
25/12/2022,07:19:57,0.000,0.0,0.0,0.0
25/12/2022,07:20:58,0.000,0.0,0.0,0.0
25/12/2022,07:21:58,-0.001,0.0,0.0,0.0
25/12/2022,07:22:57,0.000,0.0,0.0,0.0
25/12/2022,07:23:57,-0.000,0.0,0.0,0.0
25/12/2022,07:24:58,0.000,0.0,0.0,0.0
25/12/2022,07:25:57,0.000,0.0,0.0,0.0
25/12/2022,07:26:58,0.000,0.0,0.0,0.0
25/12/2022,07:27:57,-0.000,0.0,0.0,0.0
25/12/2022,07:28:57,0.000,0.0,0.0,0.0
25/12/2022,07:29:58,-0.000,0.0,0.0,0.0
25/12/2022,07:30:58,0.000,0.0,0.0,0.0
25/12/2022,07:31:57,-0.000,0.0,0.0,0.0
25/12/2022,07:32:57,0.001,0.0,0.0,0.0
25/12/2022,07:33:57,0.000,0.0,0.0,0.0
25/12/2022,07:34:58,0.000,0.0,0.0,0.0
25/12/2022,07:35:57,0.000,0.0,0.0,0.0
25/12/2022,07:36:57,0.000,0.0,0.0,0.0
25/12/2022,07:37:58,-0.000,0.0,0.0,0.0
25/12/2022,07:38:58,0.000,0.0,0.0,0.0
25/12/2022,07:39:58,0.001,0.0,0.0,0.0
25/12/2022,07:40:57,0.000,0.0,0.0,0.0
25/12/2022,07:41:58,-0.000,0.0,0.0,0.0
25/12/2022,07:42:57,0.000,0.0,0.0,0.0
25/12/2022,07:43:57,0.000,0.0,0.0,0.0
25/12/2022,07:44:58,-0.000,0.0,0.0,0.0
25/12/2022,07:45:58,0.000,0.0,0.0,0.0
25/12/2022,07:46:58,-0.000,0.0,0.0,0.0
25/12/2022,07:47:58,0.001,0.0,0.0,0.0
25/12/2022,07:48:57,0.001,0.0,0.0,0.0
25/12/2022,07:49:57,0.000,0.0,0.0,0.0
25/12/2022,07:50:58,0.000,0.0,0.0,0.0
25/12/2022,07:51:58,0.000,0.0,0.0,0.0
25/12/2022,07:52:58,-0.001,0.0,0.0,0.0
25/12/2022,07:53:57,0.000,0.0,0.0,0.0
25/12/2022,07:54:57,-0.000,0.0,0.0,0.0
25/12/2022,07:55:58,0.001,0.0,0.0,0.0
25/12/2022,07:56:57,0.001,0.0,0.0,0.0
25/12/2022,07:57:57,0.000,0.0,0.0,0.0
25/12/2022,07:58:58,0.000,0.0,0.0,0.0
25/12/2022,07:59:58,0.001,0.0,0.0,0.0
25/12/2022,08:00:58,0.001,0.0,0.0,0.0
25/12/2022,08:01:58,0.000,0.0,0.0,0.0
25/12/2022,08:02:58,0.001,0.0,0.0,0.0
25/12/2022,08:03:57,0.000,0.0,0.0,0.0
25/12/2022,08:04:58,0.001,0.0,0.0,0.0
25/12/2022,08:05:57,0.001,0.0,0.0,0.0
25/12/2022,08:06:58,0.001,0.0,0.0,0.0
25/12/2022,08:07:57,0.001,0.0,0.0,0.0
25/12/2022,08:08:57,0.002,0.0,0.0,0.0
25/12/2022,08:09:57,0.001,0.0,0.0,0.0
25/12/2022,08:10:58,0.002,0.0,0.0,0.0
25/12/2022,08:11:58,0.002,0.0,0.0,0.0
25/12/2022,08:12:58,0.001,0.0,0.0,0.0
25/12/2022,08:13:57,0.002,0.0,0.0,0.0
25/12/2022,08:14:58,0.002,0.0,0.0,0.0
25/12/2022,08:15:57,0.002,0.0,0.0,0.0
25/12/2022,08:16:58,0.002,0.0,0.0,0.0
25/12/2022,08:17:57,0.003,0.0,0.0,0.0
25/12/2022,08:18:58,0.003,0.0,0.0,0.0
25/12/2022,08:19:58,0.004,0.0,0.0,0.0
25/12/2022,08:20:58,0.003,0.0,0.0,0.0
25/12/2022,08:21:58,0.004,0.0,0.0,0.0
25/12/2022,08:22:58,0.003,0.0,0.0,0.0
25/12/2022,08:23:58,0.003,0.0,0.0,0.0
25/12/2022,08:24:57,0.003,0.0,0.0,0.0
25/12/2022,08:25:57,0.004,0.0,0.0,0.0
25/12/2022,08:26:58,0.004,0.0,0.0,0.0
25/12/2022,08:27:57,0.005,0.0,0.0,0.0
25/12/2022,08:28:58,0.005,0.0,0.0,0.0
25/12/2022,08:29:58,0.007,0.0,0.0,0.0
25/12/2022,08:30:57,0.006,0.0,0.0,0.0
25/12/2022,08:31:58,0.005,0.0,0.0,0.0
25/12/2022,08:32:57,0.005,0.0,0.0,0.0
25/12/2022,08:33:57,0.005,0.0,0.0,0.0
25/12/2022,08:34:58,0.005,0.0,0.0,0.0
25/12/2022,08:35:57,0.006,0.0,0.0,0.0
25/12/2022,08:36:58,0.006,0.0,0.0,0.0
25/12/2022,08:37:58,0.006,0.0,0.0,0.0
25/12/2022,08:38:57,0.006,0.0,0.0,0.0
25/12/2022,08:39:57,0.006,0.0,0.0,0.0
25/12/2022,08:40:58,0.006,0.0,0.0,0.0
25/12/2022,08:41:57,0.006,0.0,0.0,0.0
25/12/2022,08:42:58,0.004,0.0,0.0,0.0
25/12/2022,08:43:57,0.006,0.0,0.0,0.0
25/12/2022,08:44:57,0.005,0.0,0.001,0.001
25/12/2022,08:45:58,0.006,0.0,0.001,0.0
25/12/2022,08:46:57,0.006,0.0,0.001,0.0
25/12/2022,08:47:58,0.008,0.0,0.001,0.0
25/12/2022,08:48:58,0.009,0.0,0.001,0.0
25/12/2022,08:49:58,0.008,0.0,0.001,0.0
25/12/2022,08:50:58,0.009,0.0,0.001,0.0
25/12/2022,08:51:57,0.009,0.0,0.001,0.0
25/12/2022,08:52:57,0.010,0.0,0.001,0.0
25/12/2022,08:53:58,0.010,0.0,0.002,0.001
25/12/2022,08:54:58,0.010,0.0,0.002,0.0
25/12/2022,08:55:58,0.012,0.0,0.002,0.0
25/12/2022,08:56:58,0.012,0.0,0.002,0.0
25/12/2022,08:57:58,0.012,0.0,0.002,0.0
25/12/2022,08:58:58,0.012,0.0,0.003,0.001
25/12/2022,08:59:57,0.015,0.0,0.003,0.0
25/12/2022,09:00:58,0.013,0.0,0.003,0.0
25/12/2022,09:01:57,0.014,0.0,0.003,0.0
25/12/2022,09:02:58,0.013,0.0,0.004,0.001
25/12/2022,09:03:58,0.015,0.0,0.004,0.0
25/12/2022,09:04:57,0.013,0.0,0.004,0.0
25/12/2022,09:05:58,0.016,0.0,0.004,0.0
25/12/2022,09:06:57,0.016,0.0,0.004,0.0
25/12/2022,09:07:58,0.017,0.0,0.005,0.001
25/12/2022,09:08:58,0.018,0.0,0.005,0.0
25/12/2022,09:09:58,0.019,0.0,0.005,0.0
25/12/2022,09:10:58,0.020,0.0,0.006,0.001
25/12/2022,09:11:57,0.019,0.0,0.006,0.0
25/12/2022,09:12:57,0.019,0.0,0.006,0.0
25/12/2022,09:13:58,0.019,0.0,0.007,0.001
25/12/2022,09:14:58,0.019,0.0,0.007,0.0
25/12/2022,09:15:58,0.018,0.0,0.007,0.0
25/12/2022,09:16:58,0.018,0.0,0.007,0.0
25/12/2022,09:17:58,0.018,0.0,0.008,0.001
25/12/2022,09:18:58,0.018,0.0,0.008,0.0
25/12/2022,09:19:58,0.017,0.0,0.008,0.0
25/12/2022,09:20:58,0.017,0.0,0.009,0.001
25/12/2022,09:21:58,0.016,0.0,0.009,0.0
25/12/2022,09:22:58,0.015,0.0,0.009,0.0
25/12/2022,09:23:58,0.015,0.0,0.009,0.0
25/12/2022,09:24:58,0.017,0.0,0.01,0.001
25/12/2022,09:25:58,0.016,0.0,0.01,0.0
25/12/2022,09:26:58,0.017,0.0,0.01,0.0
25/12/2022,09:27:58,0.017,0.0,0.011,0.001
25/12/2022,09:28:58,0.017,0.0,0.011,0.0
25/12/2022,09:29:57,0.017,0.0,0.011,0.0
25/12/2022,09:30:58,0.016,0.0,0.011,0.0
25/12/2022,09:31:57,0.014,0.0,0.012,0.001
25/12/2022,09:32:58,0.014,0.0,0.012,0.0
25/12/2022,09:33:58,0.016,0.0,0.012,0.0
25/12/2022,09:34:58,0.017,0.0,0.012,0.0
25/12/2022,09:35:58,0.019,0.0,0.013,0.001
25/12/2022,09:36:58,0.021,0.0,0.013,0.0
25/12/2022,09:37:58,0.021,0.0,0.013,0.0
25/12/2022,09:38:58,0.022,0.0,0.014,0.001
25/12/2022,09:39:58,0.023,0.0,0.014,0.0
25/12/2022,09:40:58,0.028,0.0,0.015,0.001
25/12/2022,09:41:58,0.028,0.0,0.015,0.0
25/12/2022,09:42:58,0.029,0.0,0.015,0.0
25/12/2022,09:43:58,0.031,0.0,0.016,0.001
25/12/2022,09:44:58,0.031,0.0,0.016,0.0
25/12/2022,09:45:58,0.031,0.0,0.017,0.001
25/12/2022,09:46:58,0.033,0.0,0.018,0.001
25/12/2022,09:47:58,0.033,0.0,0.018,0.0
25/12/2022,09:48:58,0.034,0.0,0.019,0.001
25/12/2022,09:49:58,0.035,0.0,0.019,0.0
25/12/2022,09:50:58,0.035,0.0,0.02,0.001
25/12/2022,09:51:57,0.036,0.0,0.02,0.0
25/12/2022,09:52:58,0.036,0.0,0.021,0.001
25/12/2022,09:53:58,0.036,0.0,0.022,0.001
25/12/2022,09:54:58,0.037,0.0,0.022,0.0
25/12/2022,09:55:58,0.039,0.0,0.023,0.001
25/12/2022,09:56:58,0.038,0.0,0.023,0.0
25/12/2022,09:57:58,0.038,0.0,0.024,0.001
25/12/2022,09:58:57,0.040,0.0,0.025,0.001
25/12/2022,09:59:57,0.040,0.0,0.025,0.0
25/12/2022,10:00:58,0.041,0.0,0.026,0.001
25/12/2022,10:01:58,0.041,0.0,0.027,0.001
25/12/2022,10:02:57,0.042,0.0,0.027,0.0
25/12/2022,10:03:58,0.042,0.0,0.028,0.001
25/12/2022,10:04:58,0.042,0.0,0.029,0.001
25/12/2022,10:05:58,0.043,0.0,0.03,0.001
25/12/2022,10:06:58,0.044,0.0,0.03,0.0
25/12/2022,10:07:57,0.044,0.0,0.031,0.001
25/12/2022,10:09:00,0.044,0.0,0.032,0.001
25/12/2022,10:09:58,0.046,0.0,0.033,0.001
25/12/2022,10:10:58,0.046,0.0,0.033,0.0
25/12/2022,10:11:58,0.048,0.0,0.034,0.001
25/12/2022,10:12:58,0.047,0.0,0.035,0.001
25/12/2022,10:13:58,0.048,0.0,0.036,0.001
25/12/2022,10:14:58,0.048,0.0,0.036,0.0
25/12/2022,10:15:58,0.049,0.0,0.037,0.001
25/12/2022,10:16:58,0.049,0.0,0.038,0.001
25/12/2022,10:18:35,0.051,0.0,0.039,0.001